Content
SEND FEEDBACK

Daily
Averages
Monthly
Summary
United States of America

KINGSVILLE, TEXAS


Home > North America > United States > Texas
Elevation: 49 feet     Latitude: 27 30N     Longitude: 097 49W

WEATHER
 
SELECT A DAY
Number of Records: 168,247;   Date Range: 1/1/95 - 10/19/14
 
SHARE

PRINT THIS DATA

[ ← Previous Day ]
WEATHER ALMANAC - JANUARY 31, 2013
[ Next Day → ]
[ °C ]   °F
Weather ElementAverageHighLow
Temperature53.4 °F70 °F (2:56 pm)37.9 °F (4:56 am)
Dewpoint29.9 °F44.1 °F (11:56 pm)19.9 °F (1:56 am)
Humidity44.4 %77 % (11:56 pm)18 % (11:56 am)
Barometer30.27 in30.34 in (10:56 am)30.21 in (2:56 pm)
Wind Speed5.3 mph13.8 mph (5:56 pm)
Wind Gust17.3 mph (10:56 am)
Weather ElementAverage
Visibility10 mi
Wind DirectionSSE (150.4 °)

Weather ElementTotal
Precipitation---
Heating Degree Days11.1 (Base 65)
Growing Degree Days4 (Base 50)
Averaged from 25 records on January 31, 2013
WEATHER CONDITIONS BREAKOUT
WIND DIRECTION BREAKOUT
WEATHER BY HOUR - JANUARY 31, 2013
[ °C ]   °F
Local TimeTemperatureDewpointHumidityBarometerVisibilityWind DirectionWind SpeedGust SpeedPrecipitationEventsConditions
1:56 AM42.1 °F19.9 °F41 %30.25 in10.0 miCalmClear
2:56 AM41.0 °F21.9 °F47 %30.25 in10.0 miWest (260°)3.5 mphClear
3:56 AM39.9 °F19.9 °F45 %30.25 in10.0 miWSW (240°)3.5 mphClear
4:56 AM37.9 °F19.9 °F48 %30.26 in10.0 miWest (260°)5.8 mphClear
5:56 AM37.9 °F21.0 °F51 %30.25 in10.0 miWest (280°)3.5 mphClear
6:32 AM39.2 °F21.2 °F49 %30.27 in10.0 miWest (270°)3.5 mphScattered Clouds
6:56 AM39.0 °F21.0 °F49 %30.27 in10.0 miWSW (250°)4.6 mphScattered Clouds
7:56 AM37.9 °F24.1 °F57 %30.30 in10.0 miWest (260°)4.6 mphMostly Cloudy
8:56 AM48.0 °F26.1 °F42 %30.31 in10.0 miWSW (250°)3.5 mphMostly Cloudy
9:41 AM55.4 °F28.4 °F36 %30.33 in10.0 miCalmMostly Cloudy
9:56 AM55.4 °F30.2 °F38 %30.32 in10.0 miVariable3.5 mphMostly Cloudy
10:56 AM66.0 °F30.9 °F27 %30.34 in10.0 miSouth (190°)9.2 mph17.3 mphMostly Cloudy
11:56 AM68.0 °F23.0 °F18 %30.31 in10.0 miSouth (190°)10.4 mphMostly Cloudy
12:56 PM68.0 °F24.1 °F19 %30.27 in10.0 miSSW (210°)5.8 mphMostly Cloudy
1:56 PM69.1 °F25.0 °F19 %30.24 in10.0 miVariable4.6 mphMostly Cloudy
2:56 PM70.0 °F26.1 °F19 %30.21 in10.0 miCalmMostly Cloudy
3:56 PM69.1 °F33.1 °F26 %30.21 in10.0 miSE (140°)9.2 mphMostly Cloudy
4:56 PM64.9 °F37.0 °F36 %30.21 in10.0 miSE (140°)12.7 mphMostly Cloudy
5:56 PM62.1 °F39.0 °F43 %30.22 in10.0 miSE (130°)13.8 mphMostly Cloudy
6:56 PM57.9 °F42.1 °F56 %30.23 in10.0 miSE (130°)8.1 mphMostly Cloudy
7:56 PM55.9 °F43.0 °F62 %30.25 in10.0 miSE (130°)5.8 mphMostly Cloudy
8:56 PM55.0 °F42.1 °F62 %30.27 in10.0 miESE (120°)4.6 mphMostly Cloudy
9:56 PM52.0 °F42.1 °F69 %30.28 in10.0 miEast (80°)4.6 mphMostly Cloudy
10:56 PM51.1 °F43.0 °F74 %30.28 in10.0 miSE (130°)3.5 mphMostly Cloudy
11:56 PM51.1 °F44.1 °F77 %30.28 in10.0 miEast (100°)3.5 mphClear
Hourly data recorded from KNQI, located miles away from Kingsville, Texas







STORIES FROM OUR PARTNERS